Change the Weather History Date:

Thursday, January 2, 2014

  Actual Average Record
Temperature  
Mean Temperature 37 °F -  
Max Temperature 46 °F 40 °F 57 °F (2006)
Min Temperature 28 °F 22 °F 6 °F (1968)
Degree Days  
Heating Degree Days 28    
Moisture  
Dew Point 21 °F    
Average Humidity 55    
Maximum Humidity 69    
Minimum Humidity 32    
Precipitation  
Precipitation 0.00 in - - ()
Sea Level Pressure  
Sea Level Pressure 30.32 in    
Wind  
Wind Speed 1 mph (NNW)    
Max Wind Speed 4 mph    
Max Gust Speed -    
Visibility 8 miles    
Events      
Averages and records for this station are not official NWS values.
T = Trace of Precipitation, MM = Missing Value Source: NWS Daily Summary

Daily Weather History Graph

Daily Weather History Graph

Search for Another Location

Airport or City:

Trip Planner

Search our weather history database for the weather conditions in past years. The results will help you decide how hot, cold, wet, or windy it might be!

Date:

Astronomy

Jan. 02, 2014 Rise Set
Actual Time 7:39 AM MST 5:20 PM MST
Civil Twilight 7:10 AM MST 5:49 PM MST
Nautical Twilight 6:37 AM MST 6:22 PM MST
Astronomical Twilight 6:06 AM MST 6:53 PM MST
Moon 8:26 AM MST (1/2) 7:18 PM MST (1/2)
Length of Visible Light 10h 39m
Length of Day
9h 41m
Waxing Crescent, 3% of the Moon is Illuminated
Jan 2
Waxing Crescent
Jan 7
First Quarter
Jan 15
Full
Jan 23
Last Quarter
Jan 30
New

Hourly Weather History & Observations

Time (MST) Temp. Windchill Dew Point Humidity Pressure Visibility Wind Dir Wind Speed Gust Speed Precip Events Conditions
12:53 AM 33.1 °F 30.0 °F 19.9 °F 59% 30.33 in 5.0 mi North 3.5 mph - N/A   Haze
1:53 AM 30.9 °F - 19.0 °F 61% 30.34 in 10.0 mi Calm Calm - N/A   Clear
2:53 AM 30.9 °F - 19.0 °F 61% 30.34 in 7.0 mi Calm Calm - N/A   Clear
3:53 AM 30.0 °F 26.5 °F 19.0 °F 64% 30.35 in 10.0 mi SW 3.5 mph - N/A   Clear
4:46 AM 30.0 °F - 19.0 °F 64% 30.34 in 2.0 mi Calm Calm - N/A   Haze
4:53 AM 30.0 °F - 19.0 °F 64% 30.35 in 5.0 mi Calm Calm - N/A   Haze
5:35 AM 28.9 °F - 18.0 °F 64% 30.34 in 1.8 mi Calm Calm - N/A   Haze
5:43 AM 28.9 °F - 18.0 °F 64% 30.34 in 3.0 mi Calm Calm - N/A   Haze
5:53 AM 28.9 °F 25.2 °F 18.0 °F 64% 30.37 in 9.0 mi WSW 3.5 mph - N/A   Clear
6:51 AM 28.4 °F 24.6 °F 19.4 °F 69% 30.35 in 2.0 mi WSW 3.5 mph - N/A   Haze
6:53 AM 28.9 °F - 19.0 °F 67% 30.38 in 3.0 mi Calm Calm - N/A   Haze
7:53 AM 28.9 °F 25.2 °F 18.0 °F 64% 30.39 in 10.0 mi SSE 3.5 mph - N/A   Clear
8:53 AM 35.1 °F - 21.0 °F 57% 30.40 in 10.0 mi Calm Calm - N/A   Clear
9:53 AM 37.0 °F - 21.9 °F 54% 30.40 in 10.0 mi Calm Calm - N/A   Clear
10:53 AM 39.0 °F - 24.1 °F 55% 30.39 in 10.0 mi Calm Calm - N/A   Clear
11:53 AM 42.1 °F - 24.1 °F 49% 30.35 in 10.0 mi Calm Calm - N/A   Clear
12:53 PM 43.0 °F 41.3 °F 23.0 °F 45% 30.31 in 10.0 mi NNE 3.5 mph - N/A   Clear
1:53 PM 45.0 °F 43.5 °F 23.0 °F 42% 30.28 in 10.0 mi ENE 3.5 mph - N/A   Clear
2:53 PM 46.0 °F - 23.0 °F 40% 30.25 in 10.0 mi Calm Calm - N/A   Clear
3:53 PM 46.0 °F 44.8 °F 23.0 °F 40% 30.25 in 10.0 mi ENE 3.5 mph - N/A   Clear
4:53 PM 44.1 °F - 24.1 °F 45% 30.25 in 10.0 mi Calm Calm - N/A   Clear
5:53 PM 42.1 °F - 24.1 °F 49% 30.26 in 10.0 mi Calm Calm - N/A   Clear
6:53 PM 39.0 °F - 24.1 °F 55% 30.28 in 9.0 mi Calm Calm - N/A   Clear
7:53 PM 37.9 °F - 24.1 °F 57% 30.28 in 7.0 mi Calm Calm - N/A   Clear
8:53 PM 37.9 °F - 23.0 °F 55% 30.25 in 6.0 mi Calm Calm - N/A   Haze
9:53 PM 37.0 °F - 23.0 °F 57% 30.25 in 10.0 mi Calm Calm - N/A   Clear
10:53 PM 34.0 °F - 21.9 °F 61% 30.25 in 6.0 mi Calm Calm - N/A   Haze
11:53 PM 33.1 °F - 21.9 °F 64% 30.22 in 6.0 mi Calm Calm - N/A   Haze